DateTimeUTC,F1_A11,F1_S11,BsB_S11,BsG_S11,BsR_S11,BbsB_S11,BbsG_S11,BbsR_S11,BaB_A11,BaG_A11,BaR_A11,Tu_S11,T_S11,Uu_S11,U_S11,P_S11,T1_A11
2021-11-28T18:00:00Z,00000200,21000000,,,,,,,-000.20,0000.18,-000.10,18.2,25.1,,00.0,0631.4,30.8
2021-11-28T18:01:00Z,00000200,21000000,,,,,,,-000.38,-000.28,-000.37,18.2,25.2,,00.0,0631.4,30.8
2021-11-28T18:02:00Z,00000200,21000000,,,,,,,0000.11,-000.09,0000.08,18.1,25.2,,00.0,0631.4,30.8
2021-11-28T18:03:00Z,00000200,61000000,,,,,,,-000.10,-000.05,0000.17,18.1,25.2,,00.0,0631.4,30.8
2021-11-28T18:04:00Z,00000200,41000000,0000.54,0000.47,-000.28,-000.15,0000.02,-000.16,-000.54,-000.34,-000.35,18.3,25.0,,00.0,0632.3,30.8
2021-11-28T18:05:00Z,00000200,01000000,0000.45,0000.07,-000.25,0000.30,-000.10,-000.30,0000.10,-000.02,-000.34,18.3,24.9,,00.0,0632.3,30.8
2021-11-28T18:06:00Z,00000200,01000000,-000.44,0000.18,-000.23,-000.10,0000.01,0000.00,0000.24,0000.35,0000.33,18.3,24.9,,00.0,0632.4,30.8
2021-11-28T18:07:00Z,00000200,01000000,0000.05,0000.44,-000.33,0000.30,0000.11,-000.69,0000.13,0000.12,-000.13,18.3,24.9,,00.0,0632.4,30.8
2021-11-28T18:08:00Z,00000200,01000000,-000.24,0000.33,0000.02,0000.42,0000.03,-000.10,0000.22,-000.23,0000.11,18.3,24.9,,00.0,0632.4,30.8
2021-11-28T18:09:00Z,00000200,01000000,0000.14,0000.20,0000.01,0000.63,0000.25,-000.42,-000.12,0000.13,0000.07,18.3,24.8,,00.0,0632.4,30.7
2021-11-28T18:10:00Z,00000200,01000000,-000.45,0000.08,-000.13,0000.44,0000.37,-000.43,-000.04,-000.07,-000.01,18.3,24.8,,00.0,0632.4,30.8
2021-11-28T18:11:00Z,00000200,01000000,0000.69,-000.01,0000.02,0000.51,-000.03,-000.23,-000.00,-000.14,-000.03,18.4,24.8,,00.0,0632.4,30.8
2021-11-28T18:12:00Z,00000200,01000000,-000.47,0000.23,0000.06,0000.12,-000.08,-000.14,0000.15,0000.24,0000.01,18.4,24.8,,00.0,0632.4,30.8
2021-11-28T18:13:00Z,00000200,01000000,0000.46,0000.52,0000.14,-000.64,-000.21,-000.29,-000.08,0000.08,0000.10,18.4,24.8,,00.0,0632.4,30.8
2021-11-28T18:14:00Z,00000200,01000000,0000.01,0000.30,-000.12,0000.44,0000.41,-000.30,0000.48,0000.21,-000.23,18.4,24.8,,00.0,0632.4,30.8
2021-11-28T18:15:00Z,00000200,01000000,0000.78,0000.21,-000.25,0000.18,0000.11,-000.19,-000.21,-000.32,0000.08,18.4,24.8,,00.0,0632.4,30.8
2021-11-28T18:16:00Z,00000200,01000000,0000.38,0000.22,-000.16,0001.06,0000.11,-000.32,0000.10,0000.32,0000.38,18.4,24.8,,00.0,0632.4,30.8
2021-11-28T18:17:00Z,00000200,01000000,-000.16,0000.30,-000.36,0000.51,0000.26,-000.29,0000.14,0000.10,0000.35,18.4,24.8,,00.0,0632.5,30.8
2021-11-28T18:18:00Z,00000200,01000000,-000.28,-000.08,-000.00,0000.92,0000.11,-000.09,-000.09,0000.40,-000.06,18.4,24.8,,00.0,0632.4,30.8
2021-11-28T18:19:00Z,00000200,01000000,-000.06,0000.08,-000.13,0000.05,0000.43,-000.14,0000.39,-000.44,-000.19,18.4,24.8,,00.0,0632.4,30.8
2021-11-28T18:20:00Z,00000200,01000000,0000.21,-000.02,-000.36,-000.31,-000.04,-000.25,0000.02,0000.38,0000.46,18.3,24.8,,00.0,0632.4,30.8
2021-11-28T18:21:00Z,00000200,01000000,0000.29,0000.19,0000.17,0000.37,0000.09,-000.25,-000.14,0000.08,-000.18,18.3,24.8,,00.0,0632.4,30.8
2021-11-28T18:22:00Z,00000200,01000000,0000.48,0000.12,0000.03,0000.30,0000.40,-000.43,0000.54,0000.47,0000.07,18.3,24.8,,00.0,0632.4,30.8
2021-11-28T18:23:00Z,00000200,01000000,0000.46,0000.03,-000.17,0000.42,-000.04,-000.17,0000.06,-000.12,0000.22,18.3,24.7,,00.0,0632.3,30.7
2021-11-28T18:24:00Z,00000200,01000000,-000.05,0000.13,-000.00,0000.28,-000.03,-000.33,-000.30,-000.05,-000.32,18.3,24.7,,00.0,0632.3,30.7
2021-11-28T18:25:00Z,00000200,01000000,0000.16,0000.28,-000.15,0000.61,0000.03,-000.34,0000.64,0000.53,0000.46,18.3,24.7,,00.0,0632.4,30.8
2021-11-28T18:26:00Z,00000200,01000000,0000.69,0000.37,-000.28,0000.38,0000.16,-000.30,0000.04,-000.07,0000.21,18.3,24.7,,00.0,0632.4,30.8
2021-11-28T18:27:00Z,00000200,01000000,0000.31,-000.05,-000.25,0000.52,-000.11,-000.31,0000.07,0000.00,-000.05,18.3,24.7,,00.0,0632.4,30.7
2021-11-28T18:28:00Z,00000200,01000000,0000.40,-000.17,-000.15,0000.23,-000.32,-000.24,0000.20,0000.41,0000.23,18.3,24.7,,00.0,0632.4,30.8
2021-11-28T18:29:00Z,00000200,01000000,0000.43,0000.07,-000.13,-000.06,-000.21,-000.02,0000.23,-000.30,0000.13,18.3,24.7,,00.0,0632.4,30.8
2021-11-28T18:30:00Z,00000200,01000000,-000.38,0000.44,-000.34,0000.16,-000.04,-000.75,0000.21,0000.26,0000.12,18.3,24.7,,00.0,0632.4,30.8
2021-11-28T18:31:00Z,00000200,01000000,0000.27,0000.45,-000.13,0000.31,0000.02,-000.39,-000.02,0000.09,0000.01,18.4,24.7,,00.0,0632.5,30.8
2021-11-28T18:32:00Z,00000200,01000000,0000.17,0000.23,-000.48,0000.33,0000.09,-000.02,-000.00,0000.28,0000.00,18.4,24.7,,00.0,0632.5,30.8
2021-11-28T18:33:00Z,00000200,01000000,0000.07,0000.42,0000.07,-000.23,-000.16,-000.08,0000.12,-000.03,0000.36,18.4,24.7,,00.0,0632.5,30.8
2021-11-28T18:34:00Z,00000200,01000000,0000.18,0000.22,0000.02,0000.39,0000.16,-000.37,-000.17,0000.05,-000.23,18.4,24.7,,00.0,0632.5,30.8
2021-11-28T18:35:00Z,00000200,01000000,-000.20,0000.22,0000.07,0001.16,0000.15,-000.17,-000.09,-000.14,-000.02,18.4,24.7,,00.0,0632.6,30.8
2021-11-28T18:36:00Z,00000200,01000000,0000.14,-000.09,0000.08,0000.49,-000.03,-000.36,0000.12,-000.05,0000.07,18.4,24.7,,00.0,0632.8,30.8
2021-11-28T18:37:00Z,00000200,01000000,-000.12,0000.27,-000.34,-000.40,0000.06,-000.20,0000.12,0000.04,-000.34,18.4,24.7,,00.0,0632.9,30.8
2021-11-28T18:38:00Z,00000200,01000000,0000.09,-000.09,0000.17,0000.41,0000.07,0000.05,-000.19,0000.04,0000.16,18.4,24.7,,00.0,0633.0,30.7
2021-11-28T18:39:00Z,00000200,01000000,0000.56,-000.02,-000.21,0000.45,0000.21,-000.17,-000.17,-000.34,-000.02,18.4,24.7,,00.0,0633.0,30.8
2021-11-28T18:40:00Z,00000200,01000000,-000.50,0000.14,-000.32,0000.34,-000.02,-000.04,0000.25,-000.09,0000.17,18.4,24.7,,00.0,0633.0,30.8
2021-11-28T18:41:00Z,00000200,01000000,0000.82,0000.58,0000.07,0000.46,0000.28,-000.18,0000.03,0000.09,-000.21,18.4,24.7,,00.0,0633.0,30.8
2021-11-28T18:42:00Z,00000200,01000000,-000.17,0000.22,-000.38,0000.01,0000.08,-000.17,0000.16,0000.26,-000.30,18.5,24.7,,00.0,0632.9,30.8
2021-11-28T18:43:00Z,00000200,01000000,-000.70,0000.31,-000.52,0000.76,0000.03,-000.41,-000.01,0000.14,0000.12,18.4,24.7,,00.0,0632.9,30.8
2021-11-28T18:44:00Z,00000200,01000000,0000.43,-000.05,-000.52,0000.56,-000.27,-000.39,-000.11,0000.03,0000.24,18.5,24.7,,00.0,0632.8,30.8
2021-11-28T18:45:00Z,00000200,01000000,-000.42,0000.21,-000.25,-000.22,0000.53,-000.27,-000.15,-000.11,-000.19,18.4,24.7,,00.0,0632.7,30.8
2021-11-28T18:46:00Z,00000200,01000000,0000.18,0000.18,0000.05,0000.24,-000.10,0000.02,0000.32,0000.14,0000.32,18.5,24.7,,00.0,0632.6,30.8
2021-11-28T18:47:00Z,00000200,01000000,0000.15,0000.08,-000.06,0000.88,-000.29,-000.34,0000.13,-000.19,-000.12,18.5,24.7,,00.0,0632.5,30.8
2021-11-28T18:48:00Z,00000200,01000000,-000.08,0000.36,-000.23,0000.32,0000.37,-000.07,-000.09,0000.30,0000.13,18.5,24.8,,00.0,0632.4,30.8
2021-11-28T18:49:00Z,00000200,01000000,0000.47,0000.49,-000.18,0000.73,0000.01,-000.66,0000.27,0000.06,0000.06,18.5,24.8,,00.0,0632.4,30.8
2021-11-28T18:50:00Z,00000200,01000000,0000.29,0000.20,-000.11,0000.69,-000.13,-000.19,0000.00,0000.25,0000.43,18.5,24.8,,00.0,0632.3,30.8
2021-11-28T18:51:00Z,00000200,01000000,-000.37,0000.35,-000.13,0000.30,0000.07,-000.50,0000.36,-000.19,0000.32,18.5,24.8,,00.0,0632.3,30.8
2021-11-28T18:52:00Z,00000200,01000000,0000.24,0000.28,-000.08,0000.37,0000.02,-000.29,-000.04,0000.21,-000.31,18.5,24.8,,00.0,0632.3,30.8
2021-11-28T18:53:00Z,00000200,01000000,-000.25,0000.45,-000.28,-000.29,-000.08,0000.36,0000.37,0000.58,0000.05,18.5,24.8,,00.0,0632.3,30.8
2021-11-28T18:54:00Z,00000200,01000000,-000.01,-000.00,-000.21,0000.72,-000.04,-000.60,0000.01,-000.11,0000.22,18.5,24.8,,00.0,0632.3,30.8
2021-11-28T18:55:00Z,00000200,01000000,-000.52,0000.11,-000.07,0000.38,0000.26,-000.16,0000.24,-000.05,0000.22,18.5,24.8,,00.0,0632.2,30.8
2021-11-28T18:56:00Z,00000200,01000000,0000.07,-000.04,-000.45,0000.60,-000.08,-000.17,0000.25,0000.42,0000.18,18.5,24.8,,00.0,0632.2,30.8
2021-11-28T18:57:00Z,00000200,41000000,,,,,,,0000.31,0000.41,0000.44,18.6,24.8,,00.0,0632.3,30.8
2021-11-28T18:58:00Z,00000200,61000000,,,,,,,0000.24,0000.37,0000.12,18.2,24.9,,00.0,0631.3,30.8
2021-11-28T18:59:00Z,00000200,21000000,,,,,,,0000.15,-000.44,-000.26,18.2,25.0,,00.0,0631.2,30.8
